W0QQ Weather Reports


Display with metric or nautical units.
time (UTC)temp
F
wind
direction
speed
MPH
gust
MPH
rain 1hr
in
rain 24hr
in
rain mn
in
humidity
%
barometer
mb
20260902071614 82 161 2.0 9.0 0.00 0.00 0.00 62 1012.1
20260902070040 82 11 3.0 8.0 0.00 0.00 0.00 61 1012.1
20260902064629 83 11 2.0 8.0 0.00 0.00 0.00 60 1012.2
20260902063043 83 11 2.0 8.0 0.00 0.00 0.00 60 1012.4
20260902061622 83 196 2.0 6.0 0.00 0.00 0.00 59 1012.3
20260902060035 83 11 3.0 12.0 0.00 0.00 0.00 58 1012.2
20260902054501 84 11 3.0 9.0 0.00 0.00 0.00 58 1012.2
20260902053105 84 190 3.0 13.0 0.00 0.00 0.00 58 1012.2
20260902051636 84 11 3.0 11.0 0.00 0.00 0.00 57 1012.2
20260902050059 84 11 3.0 10.0 0.00 0.00 0.00 57 1012.2
20260902044546 84 11 4.0 12.0 0.00 0.00 0.00 57 1012.3
20260902043131 84 173 3.0 10.0 0.00 0.00 0.00 56 1012.3
20260902041543 84 11 3.0 14.0 0.00 0.00 0.00 56 1012.3
20260902040133 84 11 2.0 9.0 0.00 0.00 0.00 56 1012.2
20260902034545 84 11 3.0 9.0 0.00 0.00 0.00 56 1012.3
20260902033001 84 176 3.0 9.0 0.00 0.00 0.00 56 1012.4
20260902031547 84 178 1.0 8.0 0.00 0.00 0.00 57 1012.1
20260902030009 84 11 1.0 5.0 0.00 0.00 0.00 56 1012.1
20260902024601 85 11 1.0 6.0 0.00 0.00 0.00 55 1011.9
20260902023026 85 11 1.0 8.0 0.00 0.00 0.00 55 1011.8
20260902021602 85 181 1.0 6.0 0.00 0.00 0.00 55 1011.8
20260902020023 86 11 1.0 5.0 0.00 0.00 0.00 54 1011.7
20260902014601 87 11 1.0 5.0 0.00 0.00 0.00 53 1011.6
20260902013013 88 11 0.0 3.0 0.00 0.00 0.00 52 1011.4
20260902011638 89 186 1.0 3.0 0.00 0.00 0.00 50 1011.3
20260902010025 90 11 1.0 5.0 0.00 0.00 0.00 49 1011.3
20260902004613 91 11 1.0 5.0 0.00 0.00 0.00 48 1011.3
20260902003020 92 11 1.0 3.0 0.00 0.00 0.00 46 1011.3
20260902001610 93 11 2.0 5.0 0.00 0.00 0.00 45 1011.5
20260902000031 94 174 1.0 5.0 0.00 0.00 0.00 44 1011.6
20260901234620 95 11 2.0 6.0 0.00 0.00 0.00 43 1011.6
20260901233041 95 186 3.0 10.0 0.00 0.00 0.00 40 1011.6
20260901231626 96 11 4.0 13.0 0.00 0.00 0.00 39 1011.6
20260901230035 96 11 5.0 14.0 0.00 0.00 0.00 38 1011.5
20260901224626 97 11 4.0 14.0 0.00 0.00 0.00 39 1011.5
20260901223041 97 11 5.0 16.0 0.00 0.00 0.00 38 1011.6
20260901221516 97 194 2.0 17.0 0.00 0.00 0.00 38 1011.5
20260901220049 98 207 4.0 13.0 0.00 0.00 0.00 37 1011.6
20260901214631 98 11 5.0 14.0 0.00 0.00 0.00 36 1011.6
20260901213102 99 11 7.0 21.0 0.00 0.00 0.00 35 1011.8
20260901211512 100 11 5.0 20.0 0.00 0.00 0.00 34 1012.0
20260901210052 101 257 4.0 19.0 0.00 0.00 0.00 35 1012.1
20260901204516 101 11 3.0 16.0 0.00 0.00 0.00 34 1012.2
20260901203100 100 11 7.0 17.0 0.00 0.00 0.00 34 1012.5
20260901201510 101 11 6.0 14.0 0.00 0.00 0.00 35 1012.6
20260901200116 100 11 4.0 18.0 0.00 0.00 0.00 34 1012.7
20260901194514 101 11 5.0 16.0 0.00 0.00 0.00 36 1012.9
20260901193055 101 11 5.0 17.0 0.00 0.00 0.00 36 1012.9
20260901191527 100 11 4.0 13.0 0.00 0.00 0.00 39 1013.1
20260901190108 100 11 7.0 17.0 0.00 0.00 0.00 36 1013.2
20260901184518 99 208 6.0 20.0 0.00 0.00 0.00 37 1013.3
20260901183106 100 11 5.0 13.0 0.00 0.00 0.00 39 1013.5
20260901181525 100 130 3.0 14.0 0.00 0.00 0.00 42 1013.9
20260901180114 99 239 6.0 16.0 0.00 0.00 0.00 39 1014.2
20260901174534 99 326 4.0 13.0 0.00 0.00 0.00 43 1014.3
20260901173128 98 244 4.0 11.0 0.00 0.00 0.00 45 1014.4
20260901171532 97 262 6.0 14.0 0.00 0.00 0.00 43 1014.5
20260901170113 96 248 5.0 15.0 0.00 0.00 0.00 45 1014.5
20260901164522 95 11 5.0 19.0 0.00 0.00 0.00 46 1014.7
20260901163114 94 11 4.0 14.0 0.00 0.00 0.00 46 1014.7
20260901161555 93 274 4.0 14.0 0.00 0.00 0.00 49 1014.7
20260901160004 91 11 2.0 13.0 0.00 0.00 0.00 53 1014.9
20260901154554 89 11 5.0 16.0 0.00 0.00 0.00 53 1015.1
20260901153018 88 11 6.0 17.0 0.00 0.00 0.00 56 1014.9
20260901151558 86 208 6.0 12.0 0.00 0.00 0.00 58 1014.9
20260901150019 85 193 4.0 12.0 0.00 0.00 0.00 60 1014.8
20260901144608 84 199 2.0 13.0 0.00 0.00 0.00 63 1015.0
20260901143030 83 11 3.0 10.0 0.00 0.00 0.00 62 1014.9
20260901141624 82 201 5.0 14.0 0.00 0.00 0.00 63 1014.9
20260901140048 81 11 5.0 14.0 0.00 0.00 0.00 65 1014.9
20260901134613 80 189 5.0 12.0 0.00 0.00 0.00 66 1015.0
20260901133026 79 210 5.0 11.0 0.00 0.00 0.00 67 1015.2
20260901131619 78 205 3.0 8.0 0.00 0.00 0.00 69 1015.2
20260901130041 77 11 3.0 9.0 0.00 0.00 0.00 70 1015.0
20260901124624 77 216 3.0 10.0 0.00 0.00 0.00 69 1015.0
20260901123038 76 11 3.0 10.0 0.00 0.00 0.00 69 1014.9
20260901121631 76 11 2.0 8.0 0.00 0.00 0.00 69 1014.6
20260901120052 77 193 3.0 9.0 0.00 0.00 0.00 68 1014.5
20260901114509 77 11 4.0 12.0 0.00 0.00 0.00 67 1014.4
20260901113104 77 11 4.0 11.0 0.00 0.00 0.00 67 1014.3
20260901111519 77 213 4.0 10.0 0.00 0.00 0.00 66 1014.2
20260901110110 77 11 3.0 15.0 0.00 0.00 0.00 66 1014.1
20260901104514 77 197 5.0 13.0 0.00 0.00 0.00 66 1013.9
20260901103101 77 11 3.0 10.0 0.00 0.00 0.00 66 1013.9
20260901101548 78 11 1.0 9.0 0.00 0.00 0.00 65 1013.8
20260901100113 78 193 2.0 8.0 0.00 0.00 0.00 64 1013.7
20260901094531 78 11 2.0 9.0 0.00 0.00 0.00 64 1013.5
20260901093111 79 11 2.0 14.0 0.00 0.00 0.00 63 1013.4
20260901091515 79 169 4.0 10.0 0.00 0.00 0.00 63 1013.4
20260901090109 79 11 2.0 14.0 0.00 0.00 0.00 62 1013.1
20260901084535 79 208 4.0 13.0 0.00 0.00 0.00 61 1013.1
20260901083112 79 11 3.0 8.0 0.00 0.00 0.00 61 1012.8
20260901081519 79 207 4.0 11.0 0.00 0.00 0.00 61 1012.9
20260901080214 80 11 3.0 12.0 0.00 0.00 0.00 61 1012.9
20260901074537 80 226 2.0 11.0 0.00 0.00 0.00 60 1013.0
20260901073127 81 11 1.0 5.0 0.00 0.00 0.00 59 1012.9